{"data":{"norad_id":68267,"intl_designator":"2026-055F","name":"STARLINK-37103","alt_names":[],"object_type":"PAYLOAD","status":"ACTIVE","operator":null,"country":"US","launch_date":"2026-03-19","launch_site_code":"AFETR","launch_vehicle":null,"mission":null,"orbit_class":"UNKNOWN","rcs_meters":null,"size_class":null,"mass_kg":null,"dimensions":null,"purposes":["comms"],"wikipedia_slug":null,"has_3d_model":false,"image_url":null,"decayed_at":null,"tle_current":{"epoch":"2026-09-19T08:50:14.734176Z","epoch_age_seconds":149965,"freshness":"FRESH","line1":"1 68267U 26055F   26262.36822609  .00016629  00000+0  50274-3 0  9995","line2":"2 68267  53.1597 134.7111 0000311  79.4419 280.6619 15.34366384 29655","mean_motion":15.34366384,"eccentricity":3.11e-5,"inclination_deg":53.1597,"raan_deg":134.7111,"arg_perigee_deg":79.4419,"mean_anomaly_deg":280.6619,"bstar":0.00050274,"rev_number":2965,"period_min":93.849814165376,"perigee_km":462.59040262866,"apogee_km":463.01590910635,"semimajor_km":6840.9401558675,"source":"CELESTRAK","updated_at":"2026-09-20T09:00:43.846813Z"}}}